Change the Weather History Date:

Friday, February 22, 2013

  Actual Average Record
Temperature  
Mean Temperature 19 °F -  
Max Temperature 23 °F 35 °F 52 °F (1991)
Min Temperature 15 °F 15 °F -14 °F (1955)
Degree Days  
Heating Degree Days 46    
Moisture  
Dew Point 16 °F    
Average Humidity 90    
Maximum Humidity 100    
Minimum Humidity 80    
Precipitation  
Precipitation 0.00 in - - ()
Sea Level Pressure  
Sea Level Pressure 29.89 in    
Wind  
Wind Speed 11 mph (NNW)    
Max Wind Speed 17 mph    
Max Gust Speed 18 mph    
Visibility 7 miles    
Events Snow    
Averages and records for this station are not official NWS values.
T = Trace of Precipitation, MM = Missing Value Source: NWS Daily Summary

Daily Weather History Graph

Daily Weather History Graph

Search for Another Location

Airport or City:

Trip Planner

Search our weather history database for the weather conditions in past years. The results will help you decide how hot, cold, wet, or windy it might be!

Date:

Astronomy

Feb. 22, 2013 Rise Set
Actual Time 7:08 AM CST 6:00 PM CST
Civil Twilight 6:39 AM CST 6:29 PM CST
Nautical Twilight 6:05 AM CST 7:02 PM CST
Astronomical Twilight 5:32 AM CST 7:36 PM CST
Moon 3:08 PM CST (2/22) 4:58 AM CST (2/22)
Length of Visible Light 11h 50m
Length of Day
10h 51m
Waxing Gibbous, 90% of the Moon is Illuminated
Feb 22
Waxing Gibbous
Feb 25
Full
Mar 4
Last Quarter
Mar 11
New
Mar 19
First Quarter

Hourly Weather History & Observations

Time (CST) Temp. Windchill Dew Point Humidity Pressure Visibility Wind Dir Wind Speed Gust Speed Precip Events Conditions
12:12 AM 15.8 °F 4.2 °F 15.8 °F 100% 29.96 in 3.0 mi NNE 9.2 mph - N/A Snow Light Snow
12:33 AM 17.6 °F 5.7 °F 15.8 °F 93% 29.96 in 10.0 mi NNE 10.4 mph - N/A Snow Light Snow
12:52 AM 17.6 °F 6.4 °F 15.8 °F 93% 29.95 in 5.0 mi NNE 9.2 mph - N/A Snow Light Snow
1:13 AM 17.6 °F 5.0 °F 15.8 °F 93% 29.95 in 4.0 mi NNE 11.5 mph - N/A Snow Light Snow
1:33 AM 17.6 °F 5.7 °F 15.8 °F 93% 29.94 in 4.0 mi NNE 10.4 mph 16.1 mph N/A Snow Light Snow
1:52 AM 17.6 °F 5.7 °F 15.8 °F 93% 29.93 in 4.0 mi NNE 10.4 mph - N/A Snow Light Snow
2:13 AM 17.6 °F 5.0 °F 15.8 °F 93% 29.93 in 2.0 mi NNE 11.5 mph - N/A Snow Light Snow
2:33 AM 17.6 °F 5.7 °F 15.8 °F 93% 29.92 in 3.0 mi North 10.4 mph - N/A Snow Light Snow
2:52 AM 17.6 °F 4.3 °F 15.8 °F 93% 29.92 in 1.2 mi North 12.7 mph - N/A Snow Light Snow
3:33 AM 17.6 °F 5.0 °F 15.8 °F 93% 29.89 in 2.0 mi North 11.5 mph - N/A Snow Light Snow
3:52 AM 17.6 °F 4.3 °F 15.8 °F 93% 29.88 in 3.0 mi North 12.7 mph - N/A Snow Light Snow
4:13 AM 17.6 °F 4.3 °F 15.8 °F 93% 29.88 in 7.0 mi North 12.7 mph - N/A Snow Light Snow
4:33 AM 17.6 °F 4.3 °F 15.8 °F 93% 29.88 in 3.0 mi North 12.7 mph - N/A Snow Light Snow
4:52 AM 17.6 °F 4.3 °F 15.8 °F 93% 29.88 in 1.2 mi North 12.7 mph - N/A Snow Snow
5:13 AM 17.6 °F 5.0 °F 15.8 °F 93% 29.89 in 2.0 mi North 11.5 mph - N/A Snow Light Snow
5:32 AM 17.6 °F 5.7 °F 15.8 °F 93% 29.88 in 2.5 mi North 10.4 mph - N/A Snow Light Snow
6:12 AM 17.6 °F 3.7 °F 15.8 °F 93% 29.88 in 4.0 mi North 13.8 mph - N/A Snow Light Snow
6:32 AM 17.6 °F 3.7 °F 15.8 °F 93% 29.87 in 5.0 mi North 13.8 mph - N/A Snow Light Snow
6:53 AM 17.6 °F 3.7 °F 15.8 °F 93% 29.87 in 5.0 mi North 13.8 mph - N/A Snow Light Snow
7:12 AM 17.6 °F 3.7 °F 15.8 °F 93% 29.87 in 7.0 mi North 13.8 mph - N/A Snow Light Snow
7:32 AM 17.6 °F 3.7 °F 15.8 °F 93% 29.87 in 10.0 mi North 13.8 mph - N/A Snow Light Snow
7:53 AM 17.6 °F 3.2 °F 15.8 °F 93% 29.87 in 10.0 mi North 15.0 mph - N/A Snow Light Snow
8:12 AM 17.6 °F 3.7 °F 15.8 °F 93% 29.87 in 7.0 mi North 13.8 mph - N/A Snow Light Snow
8:32 AM 17.6 °F 3.7 °F 15.8 °F 93% 29.87 in 10.0 mi North 13.8 mph - N/A Snow Light Snow
8:53 AM 19.4 °F 5.5 °F 15.8 °F 86% 29.87 in 10.0 mi NNW 15.0 mph - N/A Snow Light Snow
9:12 AM 19.4 °F 4.5 °F 17.6 °F 93% 29.87 in 5.0 mi NNW 17.3 mph - N/A Snow Light Snow
9:32 AM 19.4 °F 5.5 °F 17.6 °F 93% 29.87 in 7.0 mi North 15.0 mph - N/A Snow Light Snow
9:53 AM 21.2 °F 7.8 °F 17.6 °F 86% 29.88 in 7.0 mi North 15.0 mph - N/A Snow Light Snow
10:12 AM 21.2 °F 8.3 °F 17.6 °F 86% 29.88 in 4.0 mi North 13.8 mph - N/A Snow Light Snow
10:32 AM 21.2 °F 8.9 °F 17.6 °F 86% 29.88 in 2.5 mi North 12.7 mph - N/A Snow Light Snow
10:53 AM 21.2 °F 9.5 °F 17.6 °F 86% 29.89 in 3.0 mi NNW 11.5 mph - N/A Snow Light Snow
11:12 AM 21.2 °F 9.5 °F 17.6 °F 86% 29.88 in 5.0 mi NNW 11.5 mph - N/A Snow Light Snow
11:32 AM 21.2 °F 9.5 °F 17.6 °F 86% 29.87 in 4.0 mi NNW 11.5 mph - N/A Snow Light Snow
11:53 AM 23.0 °F 11.7 °F 17.6 °F 80% 29.87 in 10.0 mi NNW 11.5 mph - N/A Snow Light Snow
12:12 PM 21.2 °F 10.1 °F 19.4 °F 93% 29.87 in 10.0 mi NNW 10.4 mph - N/A Snow Light Snow
12:32 PM 21.2 °F 10.1 °F 17.6 °F 86% 29.87 in 10.0 mi NW 10.4 mph - N/A   Overcast
12:52 PM 21.2 °F 10.9 °F 17.6 °F 86% 29.87 in 10.0 mi NW 9.2 mph - N/A   Overcast
1:13 PM 21.2 °F 10.9 °F 17.6 °F 86% 29.87 in 10.0 mi NW 9.2 mph - N/A   Overcast
1:33 PM 21.2 °F 8.3 °F 17.6 °F 86% 29.87 in 10.0 mi WNW 13.8 mph - N/A   Overcast
1:52 PM 21.2 °F 8.9 °F 17.6 °F 86% 29.88 in 10.0 mi WNW 12.7 mph - N/A   Overcast
2:13 PM 21.2 °F 8.9 °F 17.6 °F 86% 29.88 in 7.0 mi WNW 12.7 mph - N/A   Overcast
2:33 PM 21.2 °F 10.1 °F 17.6 °F 86% 29.88 in 2.0 mi NW 10.4 mph - N/A Snow Light Snow
2:52 PM 23.0 °F 12.4 °F 17.6 °F 80% 29.88 in 1.8 mi NW 10.4 mph - N/A Snow Light Snow
3:13 PM 21.2 °F 8.3 °F 19.4 °F 93% 29.88 in 1.5 mi WNW 13.8 mph - N/A Snow Light Snow
3:33 PM 23.0 °F 11.7 °F 17.6 °F 80% 29.88 in 3.0 mi WNW 11.5 mph - N/A Snow Light Snow
3:52 PM 21.2 °F 8.9 °F 17.6 °F 86% 29.88 in 10.0 mi NW 12.7 mph - N/A Snow Light Snow
4:13 PM 21.2 °F 8.3 °F 19.4 °F 93% 29.88 in 10.0 mi WNW 13.8 mph - N/A Snow Light Snow
4:33 PM 21.2 °F 8.9 °F 17.6 °F 86% 29.89 in 10.0 mi WNW 12.7 mph 18.4 mph N/A Snow Light Snow
4:52 PM 19.4 °F 6.6 °F 15.8 °F 86% 29.89 in 10.0 mi WNW 12.7 mph - N/A Snow Light Snow
5:12 PM 19.4 °F 10.4 °F 17.6 °F 93% 29.90 in 7.0 mi WNW 6.9 mph - N/A Snow Light Snow
5:33 PM 19.4 °F 8.6 °F 17.6 °F 93% 29.90 in 3.0 mi WNW 9.2 mph - N/A Snow Light Snow
5:52 PM 19.4 °F 8.6 °F 15.8 °F 86% 29.90 in 7.0 mi WNW 9.2 mph - N/A Snow Light Snow
6:13 PM 19.4 °F 10.4 °F 15.8 °F 86% 29.90 in 7.0 mi NW 6.9 mph - N/A Snow Light Snow
6:32 PM 17.6 °F 10.7 °F 15.8 °F 93% 29.90 in 7.0 mi WNW 4.6 mph - N/A Snow Light Snow
6:52 PM 19.4 °F 7.9 °F 17.6 °F 93% 29.90 in 7.0 mi WNW 10.4 mph - N/A Snow Light Snow
7:13 PM 17.6 °F 8.2 °F 15.8 °F 93% 29.90 in 10.0 mi NW 6.9 mph - N/A Snow Light Snow
7:32 PM 17.6 °F 7.3 °F 15.8 °F 93% 29.90 in 10.0 mi WNW 8.1 mph - N/A Snow Light Snow
7:53 PM 17.6 °F 6.4 °F 15.8 °F 93% 29.90 in 10.0 mi WNW 9.2 mph - N/A Snow Light Snow
8:13 PM 17.6 °F 6.4 °F 15.8 °F 93% 29.90 in 10.0 mi WNW 9.2 mph - N/A Snow Light Snow
8:32 PM 15.8 °F 5.1 °F 12.2 °F 86% 29.90 in 10.0 mi WNW 8.1 mph - N/A   Scattered Clouds
8:53 PM 15.8 °F 5.1 °F 14.0 °F 93% 29.90 in 10.0 mi WNW 8.1 mph - N/A   Overcast
9:13 PM 17.6 °F 7.3 °F 15.8 °F 93% 29.90 in 10.0 mi WNW 8.1 mph - N/A   Overcast
9:32 PM 17.6 °F 6.4 °F 15.8 °F 93% 29.89 in 10.0 mi WNW 9.2 mph - N/A   Overcast
9:53 PM 17.6 °F 8.2 °F 15.8 °F 93% 29.89 in 10.0 mi West 6.9 mph - N/A   Overcast
10:13 PM 15.8 °F 3.4 °F 14.0 °F 93% 29.88 in 10.0 mi WNW 10.4 mph - N/A   Overcast
10:32 PM 15.8 °F 4.2 °F 14.0 °F 93% 29.88 in 10.0 mi West 9.2 mph - N/A Snow Light Snow
10:53 PM 15.8 °F 6.1 °F 12.2 °F 86% 29.89 in 10.0 mi West 6.9 mph - N/A Snow Light Snow
11:13 PM 15.8 °F 5.1 °F 12.2 °F 86% 29.89 in 10.0 mi West 8.1 mph - N/A   Overcast
11:32 PM 15.8 °F 6.1 °F 12.2 °F 86% 29.90 in 10.0 mi West 6.9 mph - N/A   Overcast
11:52 PM 15.8 °F 7.2 °F 14.0 °F 93% 29.89 in 10.0 mi West 5.8 mph - N/A Snow Light Snow